User: anonymous   Login
Location: Unspecified
(0.0000°N, 0.0000°E)
Time: 01:57:38
(UTC+00:00)
Language:

NNS O-31 - Orbit

View from above orbital plane
View from above orbital plane
View from above satellite
View from above satellite

Ground track
Ground track

The orbit data is extracted from the following two-line orbital elements,

1 19420U 88074B   18055.02096495 +.00000036 +00000-0 +45203-4 0  9994
2 19420 089.9895 018.6344 0096619 084.4373 328.3882 13.42194924444344
Epoch (UTC): 24 February 2018 00:30:11
Eccentricity: 0.0096619
inclination: 89.9895°
perigee height: 1029 km
apogee height: 1173 km
right ascension of ascending node: 18.6344°
argument of perigee: 84.4373°
revolutions per day: 13.42194924
mean anomaly at epoch: 328.3882°
orbit number at epoch: 44434

The dashed part of the orbit path shows where the satellite is in the earth's shadow,  

DLR